Regional Weather Roundup
Issued by NWS

Home | Current Version | Previous Version | Graphics & Text | Print | Product List | Glossary On
Versions: 1 2 3 4 5 6 7 8 9 10 11 12 13 14 15 16 17 18 19 20 21 22 23 24 25 26 27 28 29 30 31 32 33 34 35 36 37 38 39 40 41 42 43 44 45 46 47 48 49 50
000
ASUS45 KABQ 272110
RWRNM
WEATHER ROUNDUP FOR NEW MEXICO
NATIONAL WEATHER SERVICE ALBUQUERQUE NM
300 PM MDT WED AUG 27 2014

NOTE: "FAIR" MEANS FEW OR NO CLOUDS BELOW 12,000 FEET AGL WITH NO
       SIGNIFICANT WEATHER OR OBSTRUCTIONS TO VISION.

      THIS PRODUCT IS RELEASED AS TWO VERSIONS.  ONE VERSION NEAR
      THE TOP OF THE HOUR CONTAINING PRELIMINARY DATA FROM ALBUQUERQUE
      AND OTHER STATIONS.  A FINAL VERSION WITH ADDITIONAL DATA IS
      ISSUED ABOUT 10 MINUTES AFTER THE HOUR.

NMZ501-503-504-510>518-272200-
NORTHWEST PLATEAU/NORTHCENTRAL MOUNTAINS

CITY           SKY/WX    TMP DP  RH WIND       PRES   REMARKS
FARMINGTON     MOSUNNY   73  47  39 VRB3      30.25F
LOS ALAMOS     PTSUNNY   66  52  59 N8        30.35F
SANTA FE       PTSUNNY   74  49  41 VRB6      30.28F
ANGEL FIRE     FAIR      65  47  52 SW9       30.40F

$$
NMZ402-403-502-505>509-272200-
WESTCENTRAL MOUNTAINS/SOUTHWEST MOUNTAINS

CITY           SKY/WX    TMP DP  RH WIND       PRES   REMARKS
GALLUP         PTSUNNY   75  39  27 NW13G18   30.32F
SILVER CITY    MOSUNNY   82  50  32 SW12G21   30.26F

$$
NMZ407-409-411-412-272200-
SOUTHERN DESERTS

CITY           SKY/WX    TMP DP  RH WIND       PRES   REMARKS
LORDSBURG      FAIR      86  54  32 N5        30.17F
DEMING         MOSUNNY   86  55  34 W7        30.15F
LAS CRUCES     SUNNY     84  55  37 NW3       30.18F
HOLLOMAN AFB   MOSUNNY   84  61  45 SW2       30.15F
ALAMOGORDO     MOSUNNY   82  55  39 S6        30.18F
T OR C         CLOUDY    79  57  46 VRB3      30.21F

$$
NMZ519>523-272200-
CENTRAL VALLEYS/CENTRAL HIGHLANDS

CITY           SKY/WX    TMP DP  RH WIND       PRES   REMARKS
ALBUQUERQUE    CLOUDY    78  50  37 W5        30.25F
DOUBLE EAGLE   TSTM      64  54  68 NW17G28   30.31S
MORIARTY ARPT  FAIR      77  47  34 W9        30.29F
CLINES CORNERS MOSUNNY   72  50  45 W13G22    30.33F
BELEN          MOCLDY    79  50  37 N3        30.23F
SOCORRO        FAIR      79  56  44 SE3       30.21F

$$
NMZ524>526-539-540-272200-
SOUTHCENTRAL MOUNTAINS

CITY           SKY/WX    TMP DP  RH WIND       PRES   REMARKS
RUIDOSO        MOSUNNY   73  57  56 N9G16     30.35F

$$
NMZ527>531-272200-
NORTHEAST HIGHLANDS/NORTHEAST PLAINS

CITY           SKY/WX    TMP DP  RH WIND       PRES   REMARKS
LAS VEGAS      SUNNY     77  44  30 SW12      30.25F
RATON          SUNNY     81  46  29 S13G22    30.18F
CLAYTON        MOSUNNY   81  55  40 S15       30.14F

$$
NMZ532>537-272200-
EASTCENTRAL PLAINS

CITY           SKY/WX    TMP DP  RH WIND       PRES   REMARKS
TUCUMCARI      MOSUNNY   88  52  29 SW15      30.10F
CANNON AFB     MOSUNNY   85  58  39 W12       30.15F
CLOVIS AIRPORT   N/A     86  57  37 SW10      30.17F

$$
NMZ028-029-538-272200-
SOUTHEAST PLAINS

CITY           SKY/WX    TMP DP  RH WIND       PRES   REMARKS
ROSWELL        PTSUNNY   85  60  42 S8        30.12F
CARLSBAD       CLOUDY    84  57  39 NW7       30.10F
HOBBS          PTSUNNY   91  50  24 S9        30.11F


$$



USA.gov is the U.S. government's official web portal to all federal, state and local government web resources and services.